| time (UTC) | temp F | wind direction | speed MPH | gust MPH | rain 1hr in | rain 24hr in | rain mn in | humidity % | barometer mb |
| 20260506161031 | 54 | 202 | 1.0 | 8.0 | 0.00 | 0.00 | 0.00 | 45 | 1014.2 |
| 20260506160529 | 54 | 340 | 3.0 | 8.0 | 0.00 | 0.00 | 0.00 | 43 | 1014.2 |
| 20260506160045 | 55 | 34 | 1.0 | 6.0 | 0.00 | 0.00 | 0.00 | 48 | 1013.9 |
| 20260506155529 | 55 | 222 | 1.0 | 6.0 | 0.00 | 0.00 | 0.00 | 47 | 1014.0 |
| 20260506155028 | 55 | 168 | 2.0 | 5.0 | 0.00 | 0.00 | 0.00 | 47 | 1014.0 |
| 20260506154544 | 55 | 311 | 1.0 | 5.0 | 0.00 | 0.00 | 0.00 | 49 | 1014.0 |
| 20260506154029 | 55 | 16 | 2.0 | 4.0 | 0.00 | 0.00 | 0.00 | 49 | 1014.2 |
| 20260506153530 | 55 | 305 | 1.0 | 4.0 | 0.00 | 0.00 | 0.00 | 50 | 1014.0 |
| 20260506153043 | 54 | 292 | 0.0 | 4.0 | 0.00 | 0.00 | 0.00 | 50 | 1014.1 |
| 20260506152533 | 54 | 261 | 1.0 | 4.0 | 0.00 | 0.00 | 0.00 | 51 | 1014.0 |
| 20260506152031 | 54 | 46 | 1.0 | 6.0 | 0.00 | 0.00 | 0.00 | 49 | 1014.0 |
| 20260506151546 | 54 | 0 | 1.0 | 6.0 | 0.00 | 0.00 | 0.00 | 54 | 1014.0 |
| 20260506151028 | 54 | 283 | 2.0 | 6.0 | 0.00 | 0.00 | 0.00 | 49 | 1014.2 |
| 20260506150529 | 55 | 244 | 0.0 | 4.0 | 0.00 | 0.00 | 0.00 | 51 | 1014.2 |
| 20260506150044 | 54 | 195 | 0.0 | 4.0 | 0.00 | 0.00 | 0.00 | 53 | 1014.2 |
| 20260506145530 | 54 | 316 | 1.0 | 4.0 | 0.00 | 0.00 | 0.00 | 50 | 1014.2 |
| 20260506145028 | 54 | 220 | 0.0 | 2.0 | 0.00 | 0.00 | 0.00 | 54 | 1014.4 |
| 20260506144559 | 54 | 0 | 0.0 | 5.0 | 0.00 | 0.00 | 0.00 | 51 | 1014.1 |
| 20260506144028 | 54 | 294 | 1.0 | 5.0 | 0.00 | 0.00 | 0.00 | 54 | 1014.2 |
| 20260506143529 | 54 | 295 | 0.0 | 2.0 | 0.00 | 0.00 | 0.00 | 54 | 1014.3 |
| 20260506143041 | 53 | 0 | 1.0 | 2.0 | 0.00 | 0.00 | 0.00 | 55 | 1014.3 |
| 20260506142530 | 53 | 233 | 0.0 | 2.0 | 0.00 | 0.00 | 0.00 | 56 | 1014.2 |
| 20260506142028 | 52 | 250 | 1.0 | 3.0 | 0.00 | 0.00 | 0.00 | 60 | 1014.2 |
| 20260506141542 | 52 | 135 | 1.0 | 3.0 | 0.00 | 0.00 | 0.00 | 60 | 1014.2 |
| 20260506141028 | 51 | 0 | 1.0 | 3.0 | 0.00 | 0.00 | 0.00 | 57 | 1014.2 |
| 20260506140529 | 51 | 205 | 1.0 | 3.0 | 0.00 | 0.00 | 0.00 | 64 | 1014.4 |
| 20260506140045 | 50 | 129 | 0.0 | 3.0 | 0.00 | 0.00 | 0.00 | 62 | 1014.2 |
| 20260506135527 | 50 | 236 | 1.0 | 3.0 | 0.00 | 0.06 | 0.00 | 64 | 1014.0 |
| 20260506135029 | 50 | 230 | 0.0 | 3.0 | 0.00 | 0.06 | 0.00 | 65 | 1014.1 |
| 20260506134544 | 50 | 153 | 0.0 | 2.0 | 0.00 | 0.06 | 0.00 | 67 | 1013.8 |
| 20260506134029 | 49 | 160 | 0.0 | 2.0 | 0.00 | 0.06 | 0.00 | 69 | 1013.9 |
| 20260506133529 | 49 | 249 | 1.0 | 2.0 | 0.00 | 0.06 | 0.00 | 69 | 1013.8 |
| 20260506133043 | 49 | 207 | 0.0 | 1.0 | 0.00 | 0.06 | 0.00 | 70 | 1013.7 |
| 20260506132531 | 48 | 0 | 0.0 | 1.0 | 0.00 | 0.06 | 0.00 | 70 | 1013.6 |
| 20260506132029 | 48 | 234 | 0.0 | 1.0 | 0.00 | 0.06 | 0.00 | 73 | 1013.6 |
| 20260506131544 | 48 | 0 | 0.0 | 1.0 | 0.00 | 0.06 | 0.00 | 74 | 1013.4 |
| 20260506131029 | 47 | 0 | 0.0 | 1.0 | 0.00 | 0.06 | 0.00 | 73 | 1013.3 |
| 20260506130532 | 47 | 0 | 0.0 | 1.0 | 0.00 | 0.06 | 0.00 | 73 | 1013.3 |
| 20260506130044 | 47 | 191 | 0.0 | 1.0 | 0.00 | 0.06 | 0.00 | 75 | 1013.3 |
| 20260506125527 | 47 | 0 | 0.0 | 1.0 | 0.00 | 0.12 | 0.00 | 74 | 1013.4 |
| 20260506125029 | 46 | 0 | 0.0 | 1.0 | 0.00 | 0.12 | 0.00 | 76 | 1013.4 |
| 20260506124542 | 46 | 0 | 0.0 | 1.0 | 0.00 | 0.12 | 0.00 | 78 | 1013.3 |
| 20260506124028 | 46 | 0 | 0.0 | 1.0 | 0.00 | 0.12 | 0.00 | 78 | 1013.3 |
| 20260506123530 | 45 | 0 | 0.0 | 1.0 | 0.00 | 0.12 | 0.00 | 76 | 1013.2 |
| 20260506123051 | 44 | 0 | 0.0 | 0.0 | 0.00 | 0.12 | 0.00 | 77 | 1013.2 |
| 20260506122530 | 43 | 0 | 0.0 | 0.0 | 0.00 | 0.12 | 0.00 | 77 | 1013.0 |
| 20260506122028 | 43 | 0 | 0.0 | 0.0 | 0.00 | 0.12 | 0.00 | 80 | 1013.0 |
| 20260506121538 | 42 | 0 | 0.0 | 0.0 | 0.00 | 0.12 | 0.00 | 81 | 1013.0 |
| 20260506121028 | 41 | 0 | 0.0 | 0.0 | 0.00 | 0.12 | 0.00 | 83 | 1012.8 |
| 20260506120528 | 41 | 0 | 0.0 | 0.0 | 0.00 | 0.12 | 0.00 | 86 | 1012.8 |
| 20260506120042 | 40 | 0 | 0.0 | 1.0 | 0.00 | 0.12 | 0.00 | 86 | 1012.8 |
| 20260506115530 | 40 | 0 | 0.0 | 1.0 | 0.00 | 0.13 | 0.00 | 86 | 1012.7 |
| 20260506115028 | 39 | 0 | 0.0 | 1.0 | 0.00 | 0.13 | 0.00 | 86 | 1012.7 |
| 20260506114542 | 39 | 0 | 0.0 | 0.0 | 0.00 | 0.13 | 0.00 | 87 | 1012.7 |
| 20260506114028 | 38 | 0 | 0.0 | 0.0 | 0.00 | 0.13 | 0.00 | 87 | 1012.5 |
| 20260506113530 | 38 | 0 | 0.0 | 0.0 | 0.00 | 0.13 | 0.00 | 86 | 1012.6 |
| 20260506113041 | 38 | 0 | 0.0 | 0.0 | 0.00 | 0.13 | 0.00 | 86 | 1012.4 |
| 20260506112528 | 38 | 0 | 0.0 | 0.0 | 0.00 | 0.13 | 0.00 | 87 | 1012.5 |
| 20260506112028 | 38 | 0 | 0.0 | 0.0 | 0.00 | 0.13 | 0.00 | 86 | 1012.4 |
| 20260506111538 | 38 | 0 | 0.0 | 0.0 | 0.00 | 0.13 | 0.00 | 87 | 1012.2 |
| 20260506111028 | 37 | 0 | 0.0 | 0.0 | 0.00 | 0.13 | 0.00 | 87 | 1012.1 |
| 20260506110529 | 37 | 0 | 0.0 | 0.0 | 0.00 | 0.13 | 0.00 | 87 | 1012.1 |
| 20260506110042 | 37 | 0 | 0.0 | 0.0 | 0.00 | 0.13 | 0.00 | 86 | 1012.2 |
| 20260506105528 | 37 | 0 | 0.0 | 0.0 | 0.00 | 0.13 | 0.00 | 85 | 1012.1 |
| 20260506105028 | 37 | 0 | 0.0 | 0.0 | 0.00 | 0.13 | 0.00 | 85 | 1012.1 |
| 20260506104548 | 37 | 0 | 0.0 | 0.0 | 0.00 | 0.13 | 0.00 | 84 | 1012.1 |
| 20260506104029 | 37 | 0 | 0.0 | 0.0 | 0.00 | 0.13 | 0.00 | 84 | 1012.1 |
| 20260506103528 | 37 | 0 | 0.0 | 0.0 | 0.00 | 0.13 | 0.00 | 83 | 1011.9 |
| 20260506103042 | 37 | 0 | 0.0 | 0.0 | 0.00 | 0.13 | 0.00 | 83 | 1011.8 |
| 20260506102529 | 37 | 0 | 0.0 | 0.0 | 0.00 | 0.13 | 0.00 | 83 | 1011.8 |
| 20260506102030 | 38 | 0 | 0.0 | 0.0 | 0.00 | 0.13 | 0.00 | 81 | 1011.6 |
| 20260506101542 | 38 | 0 | 0.0 | 0.0 | 0.00 | 0.13 | 0.00 | 81 | 1011.5 |
| 20260506101028 | 38 | 0 | 0.0 | 0.0 | 0.00 | 0.13 | 0.00 | 80 | 1011.4 |
| 20260506100531 | 38 | 0 | 0.0 | 0.0 | 0.00 | 0.13 | 0.00 | 79 | 1011.4 |
| 20260506100044 | 39 | 0 | 0.0 | 0.0 | 0.00 | 0.13 | 0.00 | 78 | 1011.4 |
| 20260506095528 | 39 | 0 | 0.0 | 0.0 | 0.00 | 0.13 | 0.00 | 77 | 1011.3 |
| 20260506095027 | 40 | 0 | 0.0 | 0.0 | 0.00 | 0.13 | 0.00 | 76 | 1011.4 |
| 20260506094535 | 40 | 0 | 0.0 | 0.0 | 0.00 | 0.13 | 0.00 | 74 | 1011.4 |
| 20260506094027 | 41 | 0 | 0.0 | 0.0 | 0.00 | 0.13 | 0.00 | 73 | 1011.4 |
| 20260506093529 | 41 | 0 | 0.0 | 0.0 | 0.00 | 0.13 | 0.00 | 72 | 1011.6 |
| 20260506093040 | 42 | 0 | 0.0 | 0.0 | 0.00 | 0.13 | 0.00 | 71 | 1011.5 |
| 20260506092528 | 42 | 0 | 0.0 | 1.0 | 0.00 | 0.13 | 0.00 | 71 | 1011.6 |
| 20260506092029 | 43 | 0 | 0.0 | 1.0 | 0.00 | 0.13 | 0.00 | 70 | 1011.6 |
| 20260506091545 | 43 | 0 | 0.0 | 1.0 | 0.00 | 0.13 | 0.00 | 69 | 1011.6 |
| 20260506091029 | 43 | 0 | 0.0 | 1.0 | 0.00 | 0.13 | 0.00 | 69 | 1011.4 |
| 20260506090525 | 43 | 0 | 0.0 | 1.0 | 0.00 | 0.13 | 0.00 | 70 | 1011.3 |
| 20260506090044 | 42 | 0 | 0.0 | 1.0 | 0.00 | 0.13 | 0.00 | 70 | 1011.4 |
| 20260506085528 | 42 | 0 | 0.0 | 1.0 | 0.00 | 0.13 | 0.00 | 71 | 1011.4 |
| 20260506085025 | 42 | 342 | 0.0 | 1.0 | 0.00 | 0.13 | 0.00 | 72 | 1011.4 |
| 20260506084539 | 42 | 345 | 0.0 | 1.0 | 0.00 | 0.13 | 0.00 | 70 | 1011.3 |
| 20260506084029 | 41 | 0 | 0.0 | 0.0 | 0.00 | 0.13 | 0.00 | 71 | 1011.3 |
| 20260506083528 | 41 | 0 | 0.0 | 0.0 | 0.00 | 0.13 | 0.00 | 71 | 1011.1 |
| 20260506083042 | 42 | 0 | 0.0 | 0.0 | 0.00 | 0.13 | 0.00 | 70 | 1011.1 |
| 20260506082530 | 42 | 0 | 0.0 | 1.0 | 0.00 | 0.13 | 0.00 | 69 | 1011.1 |
| 20260506082030 | 42 | 0 | 0.0 | 1.0 | 0.00 | 0.13 | 0.00 | 69 | 1011.2 |
| 20260506081544 | 42 | 344 | 0.0 | 0.0 | 0.00 | 0.13 | 0.00 | 68 | 1011.0 |
| 20260506081031 | 42 | 0 | 0.0 | 0.0 | 0.00 | 0.13 | 0.00 | 68 | 1011.1 |
| 20260506080532 | 43 | 0 | 0.0 | 1.0 | 0.00 | 0.13 | 0.00 | 67 | 1011.2 |
| 20260506073044 | 45 | 349 | 0.0 | 3.0 | 0.00 | 0.13 | 0.00 | 63 | 1011.0 |
| 20260506072530 | 46 | 0 | 0.0 | 3.0 | 0.00 | 0.13 | 0.00 | 62 | 1010.9 |
| 20260506072035 | 46 | 11 | 0.0 | 3.0 | 0.00 | 0.13 | 0.00 | 62 | 1010.9 |
| 20260506071545 | 46 | 356 | 1.0 | 3.0 | 0.00 | 0.13 | 0.00 | 61 | 1010.7 |
| 20260506071031 | 46 | 360 | 1.0 | 3.0 | 0.00 | 0.13 | 0.00 | 61 | 1010.7 |
| 20260506070531 | 46 | 311 | 0.0 | 3.0 | 0.00 | 0.13 | 0.00 | 62 | 1010.5 |
| 20260506062030 | 46 | 0 | 0.0 | 1.0 | 0.00 | 0.13 | 0.00 | 65 | 1010.4 |
| 20260506061539 | 45 | 0 | 0.0 | 1.0 | 0.00 | 0.13 | 0.00 | 65 | 1010.3 |
| 20260506061031 | 45 | 0 | 0.0 | 1.0 | 0.00 | 0.13 | 0.00 | 65 | 1010.3 |
| 20260506060530 | 46 | 0 | 0.0 | 1.0 | 0.00 | 0.13 | 0.00 | 65 | 1010.4 |
| 20260506051028 | 49 | 283 | 0.0 | 1.0 | 0.00 | 0.13 | 0.00 | 59 | 1010.2 |
| 20260506050529 | 49 | 0 | 0.0 | 3.0 | 0.00 | 0.13 | 0.00 | 60 | 1010.2 |
| 20260506045028 | 50 | 307 | 0.0 | 2.0 | 0.00 | 0.13 | 0.13 | 64 | 1010.1 |
| 20260506044548 | 49 | 302 | 0.0 | 2.0 | 0.00 | 0.13 | 0.13 | 66 | 1010.0 |
| 20260506044028 | 49 | 338 | 0.0 | 1.0 | 0.00 | 0.13 | 0.13 | 68 | 1010.1 |
| 20260506043530 | 49 | 0 | 0.0 | 1.0 | 0.00 | 0.13 | 0.13 | 68 | 1010.1 |
| 20260506043036 | 49 | 0 | 0.0 | 0.0 | 0.00 | 0.13 | 0.13 | 69 | 1010.2 |
| 20260506042529 | 49 | 0 | 0.0 | 0.0 | 0.00 | 0.13 | 0.13 | 69 | 1010.2 |
| 20260506042029 | 49 | 0 | 0.0 | 0.0 | 0.00 | 0.13 | 0.13 | 69 | 1010.2 |
| 20260506041552 | 49 | 0 | 0.0 | 0.0 | 0.00 | 0.13 | 0.13 | 69 | 1010.2 |
| 20260506041030 | 49 | 0 | 0.0 | 0.0 | 0.00 | 0.13 | 0.13 | 68 | 1010.0 |
| 20260506040528 | 49 | 0 | 0.0 | 0.0 | 0.00 | 0.13 | 0.13 | 68 | 1010.1 |
| 20260506040044 | 49 | 0 | 0.0 | 0.0 | 0.00 | 0.13 | 0.13 | 69 | 1010.2 |
| 20260506035528 | 49 | 0 | 0.0 | 0.0 | 0.00 | 0.13 | 0.13 | 70 | 1010.4 |
| 20260506035028 | 49 | 0 | 0.0 | 0.0 | 0.00 | 0.13 | 0.13 | 72 | 1010.4 |
| 20260506034544 | 49 | 0 | 0.0 | 0.0 | 0.00 | 0.13 | 0.13 | 70 | 1010.7 |
| 20260506034028 | 49 | 0 | 0.0 | 0.0 | 0.00 | 0.13 | 0.13 | 68 | 1010.2 |
| 20260506033528 | 49 | 0 | 0.0 | 0.0 | 0.00 | 0.13 | 0.13 | 68 | 1010.0 |
| 20260506033038 | 49 | 0 | 0.0 | 0.0 | 0.00 | 0.13 | 0.13 | 68 | 1010.2 |
| 20260506032528 | 49 | 0 | 0.0 | 0.0 | 0.00 | 0.13 | 0.13 | 68 | 1010.2 |
| 20260506032028 | 49 | 0 | 0.0 | 0.0 | 0.00 | 0.13 | 0.13 | 68 | 1010.1 |
| 20260506031541 | 49 | 0 | 0.0 | 0.0 | 0.00 | 0.13 | 0.13 | 67 | 1010.1 |
| 20260506031029 | 49 | 0 | 0.0 | 0.0 | 0.00 | 0.13 | 0.13 | 66 | 1010.1 |
| 20260506030531 | 49 | 0 | 0.0 | 0.0 | 0.00 | 0.13 | 0.13 | 67 | 1010.0 |
| 20260506030041 | 50 | 0 | 0.0 | 0.0 | 0.00 | 0.13 | 0.13 | 65 | 1009.9 |
| 20260506025528 | 50 | 0 | 0.0 | 0.0 | 0.00 | 0.13 | 0.13 | 64 | 1009.9 |
| 20260506025028 | 50 | 0 | 0.0 | 0.0 | 0.00 | 0.13 | 0.13 | 64 | 1009.7 |
| 20260506024555 | 50 | 0 | 0.0 | 0.0 | 0.00 | 0.13 | 0.13 | 64 | 1009.7 |
| 20260506024033 | 50 | 0 | 0.0 | 0.0 | 0.00 | 0.13 | 0.13 | 64 | 1009.5 |
| 20260506023529 | 50 | 0 | 0.0 | 0.0 | 0.00 | 0.13 | 0.13 | 64 | 1009.5 |
| 20260506023039 | 50 | 0 | 0.0 | 0.0 | 0.00 | 0.13 | 0.13 | 64 | 1009.7 |
| 20260506022528 | 50 | 0 | 0.0 | 0.0 | 0.00 | 0.13 | 0.13 | 64 | 1009.6 |
| 20260506022028 | 50 | 0 | 0.0 | 0.0 | 0.00 | 0.13 | 0.13 | 63 | 1009.7 |
| 20260506021546 | 50 | 0 | 0.0 | 0.0 | 0.00 | 0.13 | 0.13 | 63 | 1009.7 |
| 20260506021059 | 50 | 0 | 0.0 | 0.0 | 0.00 | 0.13 | 0.13 | 63 | 1009.7 |
| 20260506020530 | 50 | 0 | 0.0 | 0.0 | 0.00 | 0.13 | 0.13 | 63 | 1009.5 |
| 20260506020044 | 50 | 0 | 0.0 | 0.0 | 0.00 | 0.13 | 0.13 | 63 | 1009.5 |
| 20260506015533 | 50 | 0 | 0.0 | 0.0 | 0.00 | 0.14 | 0.13 | 62 | 1009.4 |
| 20260506015031 | 51 | 0 | 0.0 | 0.0 | 0.00 | 0.14 | 0.13 | 60 | 1009.3 |
| 20260506014541 | 51 | 0 | 0.0 | 0.0 | 0.00 | 0.14 | 0.13 | 60 | 1009.2 |
| 20260506014030 | 51 | 0 | 0.0 | 0.0 | 0.00 | 0.14 | 0.13 | 59 | 1009.0 |
| 20260506013532 | 51 | 0 | 0.0 | 0.0 | 0.00 | 0.14 | 0.13 | 58 | 1008.9 |
| 20260506013047 | 51 | 0 | 0.0 | 0.0 | 0.00 | 0.14 | 0.13 | 58 | 1009.0 |
| 20260506012530 | 52 | 0 | 0.0 | 0.0 | 0.00 | 0.14 | 0.13 | 58 | 1008.9 |
| 20260506012030 | 52 | 0 | 0.0 | 0.0 | 0.00 | 0.14 | 0.13 | 57 | 1008.8 |
| 20260506011609 | 52 | 0 | 0.0 | 1.0 | 0.00 | 0.14 | 0.13 | 57 | 1008.9 |
| 20260506011031 | 52 | 0 | 0.0 | 1.0 | 0.00 | 0.14 | 0.13 | 56 | 1008.7 |
| 20260506010530 | 52 | 0 | 0.0 | 1.0 | 0.00 | 0.14 | 0.13 | 55 | 1008.7 |
| 20260506010044 | 52 | 20 | 0.0 | 1.0 | 0.00 | 0.14 | 0.13 | 55 | 1008.8 |
| 20260506005531 | 53 | 0 | 0.0 | 1.0 | 0.00 | 0.15 | 0.13 | 54 | 1008.7 |
| 20260506005033 | 53 | 19 | 0.0 | 1.0 | 0.00 | 0.15 | 0.13 | 53 | 1008.7 |
| 20260506004550 | 53 | 20 | 0.0 | 2.0 | 0.00 | 0.15 | 0.13 | 51 | 1008.8 |
| 20260506004031 | 53 | 18 | 0.0 | 2.0 | 0.00 | 0.15 | 0.13 | 51 | 1008.6 |
| 20260506003531 | 53 | 17 | 0.0 | 2.0 | 0.00 | 0.15 | 0.13 | 50 | 1008.6 |
| 20260506003044 | 53 | 0 | 0.0 | 2.0 | 0.00 | 0.15 | 0.13 | 51 | 1008.5 |
| 20260506002530 | 54 | 0 | 0.0 | 4.0 | 0.00 | 0.15 | 0.13 | 50 | 1008.6 |
| 20260506002028 | 54 | 324 | 0.0 | 4.0 | 0.00 | 0.15 | 0.13 | 49 | 1008.6 |
| 20260506001544 | 54 | 327 | 1.0 | 4.0 | 0.00 | 0.15 | 0.13 | 48 | 1008.5 |
| 20260506001031 | 54 | 303 | 1.0 | 4.0 | 0.00 | 0.15 | 0.13 | 47 | 1008.2 |
| 20260506000533 | 54 | 290 | 1.0 | 7.0 | 0.00 | 0.15 | 0.13 | 47 | 1008.7 |
| 20260506000057 | 54 | 311 | 3.0 | 7.0 | 0.00 | 0.15 | 0.13 | 46 | 1008.5 |
| 20260505235530 | 54 | 354 | 3.0 | 6.0 | 0.00 | 0.17 | 0.13 | 45 | 1008.3 |
| 20260505235030 | 54 | 358 | 1.0 | 4.0 | 0.00 | 0.17 | 0.13 | 46 | 1008.3 |
| 20260505234541 | 54 | 16 | 1.0 | 7.0 | 0.00 | 0.17 | 0.13 | 47 | 1008.3 |
| 20260505234034 | 55 | 340 | 2.0 | 7.0 | 0.00 | 0.17 | 0.13 | 47 | 1008.2 |
| 20260505233534 | 55 | 348 | 1.0 | 4.0 | 0.00 | 0.17 | 0.13 | 49 | 1008.5 |
| 20260505233041 | 55 | 293 | 1.0 | 3.0 | 0.00 | 0.17 | 0.13 | 48 | 1008.5 |
| 20260505232531 | 55 | 18 | 1.0 | 4.0 | 0.00 | 0.17 | 0.13 | 47 | 1008.6 |
| 20260505232032 | 55 | 322 | 2.0 | 4.0 | 0.00 | 0.17 | 0.13 | 46 | 1008.6 |
| 20260505231544 | 55 | 278 | 1.0 | 4.0 | 0.00 | 0.17 | 0.13 | 47 | 1008.5 |
| 20260505231030 | 55 | 58 | 1.0 | 4.0 | 0.00 | 0.17 | 0.13 | 48 | 1008.3 |
| 20260505230530 | 55 | 286 | 1.0 | 3.0 | 0.00 | 0.17 | 0.13 | 46 | 1008.5 |
| 20260505230043 | 55 | 311 | 1.0 | 6.0 | 0.00 | 0.17 | 0.13 | 45 | 1008.4 |
| 20260505225530 | 55 | 290 | 2.0 | 6.0 | 0.00 | 0.24 | 0.13 | 44 | 1008.6 |
| 20260505225030 | 55 | 58 | 1.0 | 6.0 | 0.00 | 0.24 | 0.13 | 43 | 1008.6 |
| 20260505224543 | 56 | 8 | 0.0 | 10.0 | 0.00 | 0.24 | 0.13 | 45 | 1008.8 |
| 20260505224031 | 56 | 334 | 3.0 | 10.0 | 0.00 | 0.24 | 0.13 | 43 | 1008.8 |
| 20260505223531 | 56 | 316 | 2.0 | 9.0 | 0.00 | 0.24 | 0.13 | 44 | 1008.9 |
| 20260505223044 | 56 | 75 | 1.0 | 9.0 | 0.00 | 0.24 | 0.13 | 45 | 1008.8 |
| 20260505222531 | 56 | 312 | 3.0 | 9.0 | 0.00 | 0.24 | 0.13 | 42 | 1008.9 |
| 20260505222031 | 56 | 297 | 2.0 | 6.0 | 0.00 | 0.24 | 0.13 | 43 | 1008.8 |
| 20260505221546 | 56 | 293 | 2.0 | 9.0 | 0.00 | 0.24 | 0.13 | 43 | 1008.9 |
| 20260505221031 | 56 | 319 | 3.0 | 9.0 | 0.00 | 0.24 | 0.13 | 42 | 1008.8 |
| 20260505220533 | 56 | 337 | 2.0 | 5.0 | 0.00 | 0.24 | 0.13 | 43 | 1008.8 |
| 20260505220100 | 56 | 147 | 1.0 | 6.0 | 0.00 | 0.24 | 0.13 | 44 | 1008.8 |
| 20260505215531 | 56 | 290 | 3.0 | 6.0 | 0.00 | 0.33 | 0.13 | 41 | 1008.7 |
| 20260505215030 | 56 | 326 | 2.0 | 6.0 | 0.00 | 0.33 | 0.13 | 43 | 1008.9 |
| 20260505214550 | 56 | 17 | 2.0 | 8.0 | 0.00 | 0.33 | 0.13 | 41 | 1009.1 |
| 20260505214030 | 55 | 271 | 2.0 | 8.0 | 0.00 | 0.33 | 0.13 | 44 | 1008.9 |
| 20260505213530 | 56 | 323 | 2.0 | 8.0 | 0.00 | 0.33 | 0.13 | 43 | 1008.9 |
| 20260505213047 | 56 | 285 | 1.0 | 6.0 | 0.00 | 0.33 | 0.13 | 46 | 1008.9 |
| 20260505212530 | 56 | 288 | 2.0 | 5.0 | 0.00 | 0.33 | 0.13 | 44 | 1009.0 |
| 20260505212030 | 56 | 34 | 2.0 | 5.0 | 0.00 | 0.33 | 0.13 | 44 | 1009.0 |
| 20260505211545 | 56 | 308 | 1.0 | 4.0 | 0.00 | 0.33 | 0.13 | 44 | 1009.0 |
| 20260505211030 | 56 | 283 | 1.0 | 5.0 | 0.00 | 0.33 | 0.13 | 47 | 1009.1 |
| 20260505210529 | 56 | 278 | 2.0 | 5.0 | 0.00 | 0.33 | 0.13 | 47 | 1009.0 |
| 20260505210050 | 55 | 297 | 2.0 | 5.0 | 0.00 | 0.33 | 0.13 | 45 | 1008.8 |
| 20260505205533 | 55 | 214 | 0.0 | 4.0 | 0.00 | 0.33 | 0.13 | 49 | 1009.0 |
| 20260505205029 | 55 | 45 | 1.0 | 4.0 | 0.00 | 0.33 | 0.13 | 48 | 1009.0 |
| 20260505204552 | 55 | 3 | 1.0 | 4.0 | 0.00 | 0.33 | 0.13 | 46 | 1009.0 |
| 20260505204030 | 55 | 26 | 1.0 | 3.0 | 0.00 | 0.33 | 0.13 | 49 | 1009.2 |
| 20260505203530 | 55 | 360 | 1.0 | 3.0 | 0.00 | 0.33 | 0.13 | 46 | 1009.1 |
| 20260505203042 | 55 | 0 | 0.0 | 6.0 | 0.00 | 0.33 | 0.13 | 48 | 1009.3 |
| 20260505202530 | 55 | 21 | 2.0 | 7.0 | 0.00 | 0.33 | 0.13 | 44 | 1009.3 |
| 20260505202030 | 55 | 311 | 1.0 | 7.0 | 0.00 | 0.33 | 0.13 | 47 | 1009.3 |
| 20260505201547 | 55 | 285 | 2.0 | 7.0 | 0.00 | 0.33 | 0.13 | 44 | 1009.4 |
| 20260505201030 | 55 | 249 | 1.0 | 6.0 | 0.00 | 0.33 | 0.13 | 47 | 1009.4 |
| 20260505200529 | 55 | 350 | 2.0 | 6.0 | 0.00 | 0.33 | 0.13 | 45 | 1009.4 |
| 20260505200042 | 55 | 278 | 3.0 | 6.0 | 0.00 | 0.33 | 0.13 | 45 | 1009.5 |
| 20260505195531 | 55 | 304 | 2.0 | 5.0 | 0.00 | 0.33 | 0.13 | 47 | 1009.4 |
| 20260505195029 | 55 | 355 | 1.0 | 5.0 | 0.00 | 0.33 | 0.13 | 48 | 1009.3 |
| 20260505194551 | 55 | 180 | 1.0 | 6.0 | 0.00 | 0.33 | 0.13 | 49 | 1009.4 |
| 20260505194030 | 55 | 354 | 2.0 | 7.0 | 0.00 | 0.33 | 0.13 | 48 | 1009.2 |
| 20260505193530 | 55 | 336 | 3.0 | 7.0 | 0.00 | 0.33 | 0.13 | 49 | 1009.2 |
| 20260505193043 | 55 | 330 | 1.0 | 4.0 | 0.00 | 0.33 | 0.13 | 49 | 1009.3 |
| 20260505192530 | 56 | 18 | 1.0 | 4.0 | 0.00 | 0.33 | 0.13 | 48 | 1009.5 |
| 20260505192031 | 56 | 327 | 1.0 | 4.0 | 0.00 | 0.33 | 0.13 | 48 | 1009.5 |
| 20260505191540 | 56 | 11 | 1.0 | 6.0 | 0.00 | 0.33 | 0.13 | 48 | 1009.5 |
| 20260505191030 | 55 | 20 | 2.0 | 9.0 | 0.00 | 0.33 | 0.13 | 47 | 1009.5 |
| 20260505190530 | 55 | 25 | 3.0 | 10.0 | 0.00 | 0.33 | 0.13 | 47 | 1009.6 |
| 20260505190038 | 56 | 332 | 3.0 | 10.0 | 0.00 | 0.33 | 0.13 | 47 | 1009.7 |
| 20260505185530 | 56 | 288 | 3.0 | 9.0 | 0.00 | 0.33 | 0.13 | 47 | 1009.5 |
| 20260505185034 | 56 | 31 | 2.0 | 9.0 | 0.00 | 0.33 | 0.13 | 49 | 1009.4 |
| 20260505184550 | 56 | 321 | 2.0 | 10.0 | 0.00 | 0.33 | 0.13 | 48 | 1009.4 |
| 20260505184029 | 56 | 295 | 3.0 | 10.0 | 0.00 | 0.33 | 0.13 | 48 | 1009.6 |
| 20260505183529 | 56 | 25 | 2.0 | 8.0 | 0.00 | 0.33 | 0.13 | 46 | 1009.5 |
| 20260505183050 | 56 | 8 | 3.0 | 8.0 | 0.00 | 0.33 | 0.13 | 45 | 1009.6 |
| 20260505182529 | 57 | 312 | 3.0 | 10.0 | 0.00 | 0.33 | 0.13 | 47 | 1009.6 |
| 20260505182029 | 57 | 283 | 1.0 | 10.0 | 0.00 | 0.33 | 0.13 | 49 | 1009.5 |
| 20260505181543 | 57 | 308 | 4.0 | 10.0 | 0.00 | 0.33 | 0.13 | 46 | 1009.4 |
| 20260505181029 | 57 | 14 | 3.0 | 7.0 | 0.00 | 0.33 | 0.13 | 46 | 1009.3 |
| 20260505180530 | 57 | 34 | 2.0 | 7.0 | 0.00 | 0.33 | 0.13 | 46 | 1009.3 |
| 20260505180041 | 57 | 36 | 2.0 | 5.0 | 0.00 | 0.33 | 0.13 | 45 | 1009.5 |
| 20260505175530 | 57 | 321 | 1.0 | 7.0 | 0.00 | 0.33 | 0.13 | 47 | 1009.4 |
| 20260505175030 | 57 | 316 | 3.0 | 7.0 | 0.00 | 0.33 | 0.13 | 45 | 1009.3 |
| 20260505174544 | 57 | 345 | 2.0 | 7.0 | 0.00 | 0.33 | 0.13 | 46 | 1009.2 |
| 20260505174029 | 57 | 315 | 2.0 | 6.0 | 0.00 | 0.33 | 0.13 | 48 | 1009.3 |
| 20260505173530 | 57 | 342 | 1.0 | 7.0 | 0.00 | 0.33 | 0.13 | 49 | 1009.2 |
| 20260505173044 | 56 | 217 | 2.0 | 7.0 | 0.00 | 0.33 | 0.13 | 48 | 1009.2 |
| 20260505172529 | 56 | 343 | 1.0 | 8.0 | 0.00 | 0.33 | 0.13 | 51 | 1009.3 |
| 20260505172031 | 56 | 349 | 4.0 | 8.0 | 0.00 | 0.33 | 0.13 | 46 | 1009.2 |
| 20260505171545 | 57 | 292 | 1.0 | 4.0 | 0.00 | 0.33 | 0.13 | 50 | 1009.2 |
| 20260505171031 | 57 | 311 | 1.0 | 4.0 | 0.00 | 0.33 | 0.13 | 49 | 1009.2 |
| 20260505170529 | 57 | 237 | 1.0 | 5.0 | 0.00 | 0.33 | 0.13 | 53 | 1009.1 |
| 20260505170049 | 56 | 0 | 2.0 | 5.0 | 0.00 | 0.33 | 0.13 | 53 | 1009.1 |
| 20260505165529 | 56 | 1 | 1.0 | 5.0 | 0.00 | 0.33 | 0.13 | 55 | 1009.0 |
| 20260505165030 | 56 | 195 | 0.0 | 7.0 | 0.00 | 0.33 | 0.13 | 57 | 1009.0 |
| 20260505164555 | 56 | 343 | 2.0 | 7.0 | 0.00 | 0.33 | 0.13 | 56 | 1009.1 |
| 20260505164030 | 56 | 274 | 3.0 | 7.0 | 0.00 | 0.33 | 0.13 | 57 | 1009.0 |
| 20260505163531 | 56 | 304 | 2.0 | 7.0 | 0.00 | 0.33 | 0.13 | 55 | 1009.1 |
| 20260505163044 | 56 | 332 | 3.0 | 6.0 | 0.00 | 0.33 | 0.13 | 55 | 1009.2 |
| 20260505162529 | 56 | 239 | 1.0 | 6.0 | 0.00 | 0.33 | 0.13 | 60 | 1009.1 |
| 20260505162029 | 56 | 25 | 2.0 | 6.0 | 0.00 | 0.33 | 0.13 | 57 | 1009.3 |
| 20260505161550 | 56 | 221 | 1.0 | 7.0 | 0.00 | 0.33 | 0.13 | 61 | 1009.1 |